Vorticity
-7 6 20 20 11 9 10 11 3 1 4 3 29 8 4 6 7 7 7 7 5 19 19 29 34 0 3 6 16 2 7 8 4 12 8 8 10 8 10 12 12 12 9
13 6 -10 -2 4 20 6 52 57 29 68 43 16 8 8 11 8 6 6 8 10 2 -15 2 -9 16 24 7 17 -5 7 10 10 6 9 14 11 9 11 9 8 5 4
13 16 14 -6 93 17 41 -10 7 5 11 3 0 3 7 4 6 7 8 11 15 14 8 18 9 7 -3 18 9 -17 11 9 9 8 8 9 11 12 12 10 10 8 7
11 12 18 10 12 13 5 13 13 12 13 4 -0 3 3 8 8 9 11 14 11 4 26 4 9 13 14 11 13 9 6 10 11 10 11 10 9 9 8 10 8 11 12
15 16 15 9 10 11 8 10 11 10 5 3 6 4 9 7 8 11 10 9 9 19 6 5 15 10 12 4 8 12 15 15 10 6 7 6 6 5 5 6 4 10 7
4 18 10 6 6 6 7 2 6 6 5 3 15 6 4 5 10 11 12 11 19 9 21 12 8 11 6 14 13 9 8 8 7 6 5 3 4 5 8 7 10 10 5
12 8 12 10 10 2 4 3 5 1 10 9 4 7 12 14 13 12 13 15 10 13 11 7 12 12 8 9 11 9 7 7 6 4 1 6 9 9 10 11 14 12 12
13 10 8 14 3 6 5 12 10 13 6 7 10 14 12 10 10 10 10 11 10 10 11 8 7 9 9 8 8 8 8 6 3 5 8 8 9 14 16 15 15 14 14
10 14 12 12 10 10 10 14 6 5 4 7 12 10 9 9 10 9 12 12 11 8 8 8 9 9 9 8 6 5 5 5 5 8 8 8 10 13 15 12 15 12 15
8 10 15 14 13 17 6 2 3 5 9 12 9 9 9 10 10 12 11 11 10 11 10 9 8 8 8 7 7 7 5 3 7 8 7 7 9 12 15 15 16 16 14
10 8 11 14 9 4 3 4 4 9 11 9 9 9 9 9 10 11 10 10 9 9 9 10 9 8 7 6 6 5 4 8 8 9 9 10 11 14 16 17 17 15 14
15 13 13 7 4 4 4 4 9 11 10 8 7 7 8 9 9 9 9 8 9 9 9 8 7 6 6 6 6 6 7 7 8 10 11 11 12 14 15 16 18 22 21
14 12 7 5 4 4 5 8 10 8 8 8 8 9 10 9 9 10 10 9 10 10 8 6 6 6 6 7 7 7 7 8 9 11 12 11 12 14 15 17 19 28 24
9 6 4 4 5 6 6 6 8 7 7 8 9 11 10 12 13 13 10 14 8 5 3 8 6 5 7 7 7 7 9 10 11 11 11 12 13 15 17 18 20 31 26
6 4 4 5 5 5 6 7 8 8 9 9 9 11 16 13 6 9 12 -2 8 4 7 6 5 7 6 7 8 9 10 9 9 10 11 11 13 15 17 19 30 29 14
6 5 5 6 7 8 8 8 8 8 10 13 18 18 14 16 12 -0 6 10 7 7 4 4 5 6 8 7 8 9 8 9 9 12 13 14 14 15 16 27 31 18 16
8 7 7 8 8 9 9 12 11 10 9 15 11 1 -7 -1 10 2 13 7 6 6 6 8 8 7 6 11 10 10 9 8 11 15 15 14 14 14 14 35 3 26 9
10 10 11 11 10 11 13 11 9 8 -1 -10 17 24 22 9 8 11 10 11 8 9 9 6 5 11 12 11 9 9 9 12 14 14 14 15 14 12 13 32 23 16 13
12 12 14 17 17 14 12 11 13 17 14 15 14 14 17 14 10 7 6 6 6 8 10 12 11 11 10 9 9 10 13 14 15 15 15 14 14 10 13 27 23 10 9
20 17 13 18 26 25 12 13 15 17 12 10 9 7 7 7 7 8 10 12 11 11 11 12 11 10 10 9 11 13 15 15 14 15 15 16 16 10 16 25 36 6 8
14 19 22 22 16 16 17 13 10 8 7 6 6 6 6 7 9 9 10 9 10 12 10 9 10 9 10 12 14 15 15 15 15 15 17 17 18 9 22 22 22 10 12
26 19 14 14 14 12 8 5 4 4 6 6 7 7 8 9 10 9 9 10 10 10 10 10 10 13 14 16 15 15 15 15 15 15 16 14 19 9 19 19 15 34 11
13 11 9 7 4 4 4 4 5 6 6 7 9 10 10 11 11 11 10 10 10 11 12 14 15 14 15 15 14 14 15 15 14 14 15 15 21 11 17 19 20 31 -1
4 3 4 3 4 5 5 7 8 9 10 11 10 10 11 10 10 10 10 12 13 14 15 15 14 15 14 14 14 15 15 14 14 15 16 18 20 13 15 21 18 20 18
4 5 5 5 7 8 10 10 9 9 10 10 10 10 11 12 13 14 16 16 16 16 14 14 16 15 14 16 16 14 14 14 15 16 16 18 19 15 15 23 13 16 14
6 7 8 9 8 9 10 10 10 11 12 14 15 17 17 18 17 16 15 16 17 17 18 17 16 16 17 17 15 14 14 15 16 15 16 15 18 17 13 22 18 16 13
Height
3085 3087 3088 3089 3090 3091 3091 3093 3093 3092 3092 3090 3093 3097 3099 3099 3097 3097 3097 3096 3095 3093 3092 3090 3087 3083 3081 3079 3076 3074 3071 3068 3061 3060 3058 3057 3052 3049 3047 3043 3040 3036 3032
3080 3081 3080 3083 3083 3081 3085 3081 3080 3067 3083 3072 3084 3090 3091 3092 3091 3090 3088 3088 3086 3084 3082 3080 3077 3073 3071 3069 3066 3064 3062 3059 3053 3048 3047 3045 3042 3039 3035 3031 3027 3023 3020
3073 3074 3074 3077 3069 3075 3071 3072 3075 3073 3068 3079 3082 3082 3083 3083 3083 3082 3080 3078 3076 3074 3071 3069 3066 3064 3061 3059 3057 3054 3051 3047 3043 3038 3034 3032 3030 3028 3024 3020 3015 3011 3008
3066 3067 3068 3069 3070 3070 3068 3068 3073 3073 3071 3074 3077 3076 3075 3074 3073 3072 3070 3068 3066 3063 3060 3059 3057 3055 3052 3048 3045 3043 3040 3036 3033 3029 3024 3021 3018 3016 3011 3008 3002 2999 2994
3059 3060 3061 3063 3064 3064 3064 3066 3066 3065 3066 3068 3068 3066 3065 3065 3063 3061 3059 3057 3055 3052 3051 3049 3048 3045 3041 3038 3034 3033 3030 3027 3023 3018 3014 3010 3007 3003 2999 2995 2987 2984 2980
3053 3053 3055 3057 3058 3059 3061 3061 3060 3059 3059 3059 3058 3058 3057 3054 3053 3051 3049 3048 3045 3043 3041 3039 3037 3033 3031 3028 3026 3022 3019 3016 3013 3008 3003 2999 2995 2990 2985 2979 2972 2966 2959
3047 3047 3048 3050 3052 3053 3053 3053 3053 3052 3052 3052 3051 3049 3048 3046 3044 3043 3040 3037 3035 3033 3031 3029 3027 3025 3022 3020 3018 3015 3011 3006 3001 2996 2992 2989 2983 2978 2970 2964 2957 2950 2944
3037 3039 3041 3042 3042 3043 3044 3045 3046 3046 3045 3044 3042 3041 3039 3037 3035 3033 3030 3027 3025 3024 3023 3021 3019 3016 3013 3011 3008 3006 3002 2999 2994 2989 2983 2978 2971 2965 2956 2948 2940 2934 2931
3032 3032 3033 3034 3035 3036 3036 3036 3037 3036 3036 3034 3033 3032 3030 3028 3026 3024 3022 3020 3019 3016 3013 3011 3009 3006 3004 3000 2997 2994 2991 2987 2982 2976 2970 2964 2958 2950 2941 2932 2928 2919 2914
3025 3026 3027 3026 3027 3028 3029 3030 3030 3029 3027 3025 3024 3022 3021 3019 3018 3016 3014 3011 3009 3007 3004 3002 2998 2995 2992 2989 2986 2982 2978 2975 2970 2964 2958 2952 2946 2939 2931 2922 2912 2905 2900
3018 3019 3019 3020 3021 3022 3022 3022 3021 3020 3017 3016 3015 3013 3012 3011 3009 3008 3005 3003 3000 2997 2995 2992 2988 2986 2983 2980 2976 2972 2967 2962 2957 2950 2944 2939 2933 2926 2919 2911 2902 2894 2889
3011 3012 3012 3013 3014 3014 3014 3013 3012 3010 3008 3007 3005 3003 3002 3001 2999 2996 2994 2992 2990 2988 2986 2983 2980 2977 2974 2970 2965 2961 2956 2950 2944 2938 2933 2926 2920 2913 2906 2899 2891 2884 2879
3004 3005 3006 3006 3006 3006 3006 3005 3003 3001 2999 2997 2994 2993 2990 2988 2986 2984 2982 2980 2980 2978 2976 2973 2970 2967 2963 2958 2952 2947 2942 2937 2931 2925 2919 2912 2905 2898 2891 2884 2878 2871 2867
2996 2996 2997 2998 2998 2997 2997 2995 2993 2991 2989 2987 2985 2983 2980 2978 2975 2974 2972 2970 2969 2968 2966 2962 2958 2955 2950 2946 2941 2935 2929 2924 2918 2912 2905 2899 2892 2884 2878 2870 2864 2859 2857
2986 2988 2988 2989 2988 2987 2985 2984 2983 2980 2979 2977 2975 2973 2971 2969 2966 2964 2962 2960 2958 2957 2954 2951 2947 2943 2938 2933 2928 2923 2918 2912 2906 2900 2893 2887 2880 2873 2868 2861 2854 2851 2849
2978 2978 2978 2977 2977 2976 2975 2973 2972 2970 2968 2966 2963 2961 2960 2959 2957 2955 2952 2950 2948 2946 2943 2939 2935 2931 2926 2921 2916 2912 2906 2901 2894 2888 2881 2875 2869 2864 2859 2854 2848 2845 2845
2968 2968 2967 2966 2966 2965 2964 2963 2961 2958 2956 2954 2953 2951 2951 2949 2946 2944 2941 2938 2935 2933 2929 2926 2921 2918 2914 2909 2904 2899 2894 2888 2882 2876 2870 2865 2859 2854 2850 2845 2843 2841 2841
2959 2958 2958 2957 2956 2955 2953 2951 2948 2944 2944 2947 2945 2943 2941 2940 2937 2934 2931 2928 2925 2920 2916 2913 2909 2905 2900 2896 2891 2886 2881 2876 2871 2865 2860 2855 2850 2845 2842 2839 2837 2836 2836
2949 2948 2947 2946 2945 2942 2939 2939 2942 2942 2939 2937 2935 2934 2932 2930 2927 2924 2921 2917 2912 2908 2904 2901 2896 2891 2887 2883 2878 2874 2869 2864 2859 2854 2850 2845 2841 2837 2835 2831 2831 2831 2831
2940 2939 2939 2939 2939 2938 2936 2934 2933 2932 2930 2928 2926 2924 2921 2919 2915 2911 2907 2903 2899 2895 2891 2886 2882 2878 2874 2870 2866 2861 2856 2852 2847 2842 2839 2836 2832 2829 2826 2824 2824 2824 2826
2934 2932 2931 2929 2929 2928 2926 2925 2924 2923 2922 2920 2917 2913 2910 2906 2902 2897 2893 2890 2886 2882 2877 2873 2868 2864 2860 2857 2852 2848 2844 2840 2836 2833 2828 2826 2824 2822 2819 2817 2817 2818 2820
2925 2924 2924 2924 2923 2922 2921 2919 2917 2915 2912 2909 2906 2901 2897 2893 2888 2884 2880 2876 2872 2868 2863 2859 2855 2851 2847 2844 2840 2836 2833 2829 2826 2823 2819 2817 2816 2814 2812 2811 2811 2811 2814
2920 2919 2918 2918 2917 2915 2913 2910 2907 2904 2900 2896 2892 2888 2883 2879 2874 2870 2866 2861 2858 2854 2850 2846 2842 2839 2835 2831 2827 2824 2821 2818 2816 2813 2810 2809 2808 2806 2805 2804 2805 2806 2808
2915 2914 2913 2911 2909 2906 2903 2899 2895 2891 2887 2883 2879 2874 2869 2865 2860 2856 2851 2847 2844 2840 2837 2833 2829 2826 2823 2820 2816 2813 2810 2808 2805 2803 2801 2800 2799 2799 2798 2798 2799 2801 2803
2909 2906 2904 2901 2898 2894 2891 2887 2882 2878 2873 2869 2864 2859 2854 2850 2845 2841 2837 2833 2830 2826 2823 2820 2817 2814 2811 2809 2806 2803 2801 2799 2797 2794 2793 2792 2791 2792 2792 2792 2794 2796 2798
2900 2897 2894 2890 2886 2882 2877 2872 2867 2863 2858 2854 2849 2845 2840 2835 2831 2827 2823 2820 2817 2814 2811 2808 2805 2802 2800 2798 2797 2795 2792 2790 2789 2787 2785 2785 2785 2785 2785 2786 2788 2791 2793